Location: Tamazert
(32.6352°N, 5.2072°W)
Time: 05:36:15
(UTC+00:00)

Cosmos 1610 Rocket - Pass Details

Date: 22 May 2022
Orbit: 951 x 1003 km, 82.9° (Epoch: 24 June)

Event Time Altitude Azimuth Distance (km) Brightness Sun altitude
Rises 03:29:32 0° 350° (N) 3,647 8.0 -19.9°
Reaches altitude 10° 03:32:03 10° 348° (NNW) 2,692 7.2 -19.5°
Maximum altitude 03:38:09 68° 267° (W) 1,019 4.4 -18.5°
Enters shadow 03:42:52 17° 187° (S) 2,182 5.9 -17.8°
